#timestamp,LO_Frequency,Hit,StdDev 
1549594845.5,286046998.3,E
1549594855.4,286047001.1,N
1549594875.2,286047000.3,P
1549594895.1,286047003.7,P
1549594896.0,286047003.7,N
1549594915.8,286047002.8,N
1549594935.6,286047002.5,N
1549594955.5,286047001.4,N
1549594975.3,286047002.4,N
1549594995.2,286047004.1,Y
1549595015.9,286047002.5,P
1549595035.7,286047002.7,P
1549595055.6,286046999.4,P
1549595075.4,286046999.3,N
1549595095.2,286046996.8,N
1549595115.1,286046996.8,N
1549595116.0,286046996.8,N
1549595135.8,286046997.2,N
1549595155.7,286046999.6,N
1549595175.5,286046997.0,N
1549595195.3,286046998.7,N
1549595215.2,286046999.3,N
1549595235.0,286046998.7,N
1549595235.9,286046998.7,N
1549595255.8,286046999.3,N
1549595275.6,286046998.2,N
1549595295.4,286046998.5,N
1549595315.3,286047000.9,N
1549595335.1,286047000.9,N
1549595355.8,286046998.1,N
1549595375.7,286047000.5,N
1549595395.5,286047002.7,N
1549595415.4,286047000.1,N
1549595435.2,286047000.2,N
1549595455.0,286047002.4,N
1549595455.9,286047002.4,N
1549595475.8,286047000.4,N
1549595495.6,286046998.3,N
1549595515.4,286046998.3,N
1549595535.3,286047000.7,N
1549595555.1,286046998.3,N
1549595575.9,286047000.5,N
1549595595.7,286046998.4,N
1549595615.5,286046996.5,N
1549595635.4,286046999.5,N
1549595655.2,286046996.5,N
1549595675.0,286046999.5,N
1549595675.9,286046999.5,N
1549595695.8,286046996.5,N
1549595715.6,286046999.6,N
1549595735.5,286046999.1,N
1549595755.3,286046998.7,N
1549595775.1,286046998.3,N
1549595795.9,286047000.0,N
1549595815.7,286047001.2,N
1549595835.5,286046999.9,N
1549595855.4,286047000.1,N
1549595875.2,286047002.4,N
1549595895.1,286047001.2,N
1549595896.0,286047001.2,N
1549595915.8,286047001.0,N
1549595935.6,286046999.0,N
1549595955.5,286046998.0,N
1549595975.3,286046997.9,N
1549595995.2,286046997.7,N
1549596015.9,286046997.7,N
1549596035.7,286046996.7,N
1549596055.6,286046997.2,N
1549596075.4,286046996.5,N
1549596095.2,286046994.9,Y
1549596115.1,286046999.0,P
1549596116.0,286046999.0,P
1549596135.8,286046999.5,P
1549596155.7,286046998.7,Y
1549596175.5,286046999.7,P
1549596195.3,286047000.1,N
1549596215.2,286047002.3,P
1549596235.0,286047001.4,N
1549596235.9,286047001.4,N
1549596255.8,286047002.5,N
1549596275.6,286047002.4,N
1549596295.4,286046999.8,N
1549596315.3,286047000.3,N
1549596335.1,286047000.0,N
1549596355.8,286047000.1,N
1549596375.7,286047002.6,N
1549596395.5,286046999.7,N
1549596415.4,286047002.3,N
1549596435.2,286047002.1,N
1549596455.0,286046999.9,N
1549596455.9,286046999.9,N
1549596475.8,286047003.7,Y
1549596495.6,286047003.7,P
1549596515.4,286047004.0,N
1549596535.3,286047004.4,P
1549596555.1,286047002.3,N
1549596575.9,286047000.0,N
1549596595.7,286046999.4,N
1549596615.5,286047001.2,N
1549596635.4,286047000.0,N
1549596655.2,286047002.3,N
1549596675.0,286047001.5,N
1549596676.0,286047001.5,N
1549596695.8,286047002.0,N
1549596715.6,286047001.8,N
1549596735.5,286047001.9,N
1549596755.3,286047001.9,N
1549596775.2,286047002.2,N
1549596795.9,286047002.3,N
1549596815.7,286047002.6,N
1549596835.6,286047002.5,N
1549596855.4,286046999.8,N
1549596875.3,286047001.8,N
1549596895.1,286047000.1,N
1549596915.8,286047000.5,N
1549596935.7,286047000.1,N
1549596955.6,286047002.3,N
1549596975.4,286047001.9,N
1549596995.3,286047002.8,N
1549597015.1,286046999.7,N
1549597035.9,286047001.7,N
1549597055.7,286047001.9,N
1549597075.5,286047001.4,N
1549597095.4,286047003.7,Y
1549597115.2,286047001.6,P
1549597135.1,286047001.3,P
1549597136.0,286047001.3,P
1549597155.8,286047001.7,Y
1549597175.6,286046999.7,P
1549597195.5,286047001.0,N
1549597215.3,286047001.0,N
1549597235.2,286046998.3,N
1549597255.9,286046998.6,N
1549597275.7,286047000.9,N
1549597295.6,286047000.0,N
1549597315.4,286047002.8,N
1549597335.2,286047001.7,N
1549597355.1,286047004.4,Y
1549597356.0,286047004.4,P
1549597375.8,286047002.2,N
1549597395.7,286047004.4,N
1549597415.5,286047002.1,N
1549597435.3,286047000.3,N
1549597455.2,286047000.8,N
1549597475.0,286046998.7,N
1549597475.9,286046998.7,N
1549597495.8,286046998.7,N
1549597515.6,286046998.8,N
1549597535.4,286046998.7,N
1549597555.3,286046998.6,N
1549597575.1,286046998.5,N
1549597595.8,286046998.8,N
1549597615.7,286046999.0,N
1549597635.5,286046999.3,N
1549597655.4,286046996.8,N
1549597675.2,286046996.7,N
1549597695.0,286046998.2,N
1549597695.9,286046998.2,N
1549597715.8,286047000.7,N
1549597735.6,286046998.3,N
1549597755.5,286046998.7,N
1549597775.3,286047001.2,N
1549597795.1,286046999.0,N
1549597815.9,286046999.4,N
1549597835.7,286047001.2,N
1549597855.5,286047000.8,N
1549597875.4,286047001.2,N
1549597895.2,286046998.9,N
1549597915.1,286046997.1,N
1549597916.0,286046997.1,N
1549597935.8,286046997.0,N
1549597955.6,286046998.4,N
1549597975.5,286046998.4,N
1549597995.3,286047001.1,N
1549598015.2,286047001.0,N
1549598035.9,286046998.2,N
1549598055.7,286046999.6,N
1549598075.6,286046999.3,N
1549598095.4,286046998.7,N
1549598115.2,286046996.9,N
1549598135.1,286046996.9,N
1549598136.0,286046996.9,N
1549598155.8,286046996.7,N
1549598175.7,286046998.8,N
1549598195.5,286047000.9,N
1549598215.3,286046998.3,N
1549598235.2,286046999.0,N
1549598255.0,286046999.5,N
1549598255.9,286046999.5,N
1549598275.8,286046999.6,N
1549598295.6,286046996.7,N
1549598315.4,286046997.3,N
1549598335.3,286046997.5,N
1549598355.1,286046997.1,N
1549598375.8,286046997.2,N
1549598395.7,286046999.5,N
